Year,Month,Day,Hour,Minute,Value (Times are PST for temperature in C)
2014,08,11,00,00,20.60
2014,08,11,00,01,20.50
2014,08,11,00,02,20.50
2014,08,11,00,03,20.50
2014,08,11,00,04,20.40
2014,08,11,00,05,20.40
2014,08,11,00,06,20.40
2014,08,11,00,07,20.40
2014,08,11,00,08,20.30
2014,08,11,00,09,20.30
2014,08,11,00,10,20.30
2014,08,11,00,11,20.20
2014,08,11,00,12,20.20
2014,08,11,00,13,20.10
2014,08,11,00,14,20.10
2014,08,11,00,15,20.00
2014,08,11,00,16,20.00
2014,08,11,00,17,19.90
2014,08,11,00,18,19.90
2014,08,11,00,19,19.90
2014,08,11,00,20,19.90
2014,08,11,00,21,19.90
2014,08,11,00,22,19.90
2014,08,11,00,23,19.80
2014,08,11,00,24,19.80
2014,08,11,00,25,19.80
2014,08,11,00,26,19.80
2014,08,11,00,27,19.80
2014,08,11,00,28,19.80
2014,08,11,00,29,19.70
2014,08,11,00,30,19.70
2014,08,11,00,31,19.70
2014,08,11,00,32,19.70
2014,08,11,00,33,19.60
2014,08,11,00,34,19.60
2014,08,11,00,35,19.60
2014,08,11,00,36,19.60
2014,08,11,00,37,19.50
2014,08,11,00,38,19.50
2014,08,11,00,39,19.50
2014,08,11,00,40,19.40
2014,08,11,00,41,19.40
2014,08,11,00,42,19.40
2014,08,11,00,43,19.40
2014,08,11,00,44,19.30
2014,08,11,00,45,19.30
2014,08,11,00,46,19.30
2014,08,11,00,47,19.30
2014,08,11,00,48,19.20
2014,08,11,00,49,19.20
2014,08,11,00,50,19.20
2014,08,11,00,51,19.20
2014,08,11,00,52,19.20
2014,08,11,00,53,19.10
2014,08,11,00,54,19.10
2014,08,11,00,55,19.10
2014,08,11,00,56,19.10
2014,08,11,00,57,19.00
2014,08,11,00,58,19.00
2014,08,11,00,59,19.00
2014,08,11,01,00,18.90
2014,08,11,01,01,18.90
2014,08,11,01,02,18.90
2014,08,11,01,03,18.80
2014,08,11,01,04,18.80
2014,08,11,01,05,18.70
2014,08,11,01,06,18.70
2014,08,11,01,07,18.70
2014,08,11,01,08,18.60
2014,08,11,01,09,18.60
2014,08,11,01,10,18.60
2014,08,11,01,11,18.60
2014,08,11,01,12,18.60
2014,08,11,01,13,18.60
2014,08,11,01,14,18.60
2014,08,11,01,15,18.60
2014,08,11,01,16,18.60
2014,08,11,01,17,18.60
2014,08,11,01,18,18.60
2014,08,11,01,19,18.50
2014,08,11,01,20,18.60
2014,08,11,01,21,18.60
2014,08,11,01,22,18.50
2014,08,11,01,23,18.50
2014,08,11,01,24,18.50
2014,08,11,01,25,18.50
2014,08,11,01,26,18.40
2014,08,11,01,27,18.40
2014,08,11,01,28,18.40
2014,08,11,01,29,18.30
2014,08,11,01,30,18.30
2014,08,11,01,31,18.30
2014,08,11,01,32,18.20
2014,08,11,01,33,18.20
2014,08,11,01,34,18.20
2014,08,11,01,35,18.10
2014,08,11,01,36,18.10
2014,08,11,01,37,18.10
2014,08,11,01,38,18.00
2014,08,11,01,39,18.00
2014,08,11,01,40,17.90
2014,08,11,01,41,17.90
2014,08,11,01,42,17.90
2014,08,11,01,43,17.80
2014,08,11,01,44,17.80
2014,08,11,01,45,17.80
2014,08,11,01,46,17.80
2014,08,11,01,47,17.80
2014,08,11,01,48,17.70
2014,08,11,01,49,17.70
2014,08,11,01,50,17.70
2014,08,11,01,51,17.60
2014,08,11,01,52,17.60
2014,08,11,01,53,17.60
2014,08,11,01,54,17.60
2014,08,11,01,55,17.50
2014,08,11,01,56,17.50
2014,08,11,01,57,17.40
2014,08,11,01,58,17.40
2014,08,11,01,59,17.40
2014,08,11,02,00,17.40
2014,08,11,02,01,17.30
2014,08,11,02,02,17.30
2014,08,11,02,03,17.30
2014,08,11,02,04,17.30
2014,08,11,02,05,17.30
2014,08,11,02,06,17.20
2014,08,11,02,07,17.20
2014,08,11,02,08,17.20
2014,08,11,02,09,17.20
2014,08,11,02,10,17.10
2014,08,11,02,11,17.10
2014,08,11,02,12,17.10
2014,08,11,02,13,17.00
2014,08,11,02,14,17.00
2014,08,11,02,15,17.00
2014,08,11,02,16,16.90
2014,08,11,02,17,16.90
2014,08,11,02,18,16.90
2014,08,11,02,19,16.80
2014,08,11,02,20,16.80
2014,08,11,02,21,16.80
2014,08,11,02,22,16.80
2014,08,11,02,23,16.80
2014,08,11,02,24,16.70
2014,08,11,02,25,16.70
2014,08,11,02,26,16.70
2014,08,11,02,27,16.70
2014,08,11,02,28,16.70
2014,08,11,02,29,16.60
2014,08,11,02,30,16.60
2014,08,11,02,31,16.60
2014,08,11,02,32,16.60
2014,08,11,02,33,16.60
2014,08,11,02,34,16.60
2014,08,11,02,35,16.60
2014,08,11,02,36,16.60
2014,08,11,02,37,16.60
2014,08,11,02,38,16.60
2014,08,11,02,39,16.60
2014,08,11,02,40,16.50
2014,08,11,02,41,16.50
2014,08,11,02,42,16.50
2014,08,11,02,43,16.50
2014,08,11,02,44,16.40
2014,08,11,02,45,16.40
2014,08,11,02,46,16.40
2014,08,11,02,47,16.40
2014,08,11,02,48,16.40
2014,08,11,02,49,16.40
2014,08,11,02,50,16.40
2014,08,11,02,51,16.40
2014,08,11,02,52,16.40
2014,08,11,02,53,16.30
2014,08,11,02,54,16.30
2014,08,11,02,55,16.30
2014,08,11,02,56,16.30
2014,08,11,02,57,16.30
2014,08,11,02,58,16.30
2014,08,11,02,59,16.20
2014,08,11,03,00,16.20
2014,08,11,03,01,16.20
2014,08,11,03,02,16.20
2014,08,11,03,03,16.10
2014,08,11,03,04,16.10
2014,08,11,03,05,16.10
2014,08,11,03,06,16.10
2014,08,11,03,07,16.10
2014,08,11,03,08,16.10
2014,08,11,03,09,16.00
2014,08,11,03,10,16.00
2014,08,11,03,11,16.00
2014,08,11,03,12,16.00
2014,08,11,03,13,16.00
2014,08,11,03,14,16.00
2014,08,11,03,15,15.90
2014,08,11,03,16,15.90
2014,08,11,03,17,15.90
2014,08,11,03,18,15.90
2014,08,11,03,19,15.90
2014,08,11,03,20,15.90
2014,08,11,03,21,15.90
2014,08,11,03,22,15.90
2014,08,11,03,23,15.90
2014,08,11,03,24,15.90
2014,08,11,03,25,15.90
2014,08,11,03,26,15.90
2014,08,11,03,27,15.80
2014,08,11,03,28,15.80
2014,08,11,03,29,15.80
2014,08,11,03,30,15.80
2014,08,11,03,31,15.80
2014,08,11,03,32,15.80
2014,08,11,03,33,15.70
2014,08,11,03,34,15.70
2014,08,11,03,35,15.70
2014,08,11,03,36,15.70
2014,08,11,03,37,15.70
2014,08,11,03,38,15.70
2014,08,11,03,39,15.70
2014,08,11,03,40,15.60
2014,08,11,03,41,15.60
2014,08,11,03,42,15.60
2014,08,11,03,43,15.60
2014,08,11,03,44,15.60
2014,08,11,03,45,15.50
2014,08,11,03,46,15.50
2014,08,11,03,47,15.50
2014,08,11,03,48,15.60
2014,08,11,03,49,15.60
2014,08,11,03,50,15.60
2014,08,11,03,51,15.60
2014,08,11,03,52,15.60
2014,08,11,03,53,15.60
2014,08,11,03,54,15.60
2014,08,11,03,55,15.60
2014,08,11,03,56,15.60
2014,08,11,03,57,15.60
2014,08,11,03,58,15.60
2014,08,11,03,59,15.60
2014,08,11,04,00,15.60
2014,08,11,04,01,15.60
2014,08,11,04,02,15.60
2014,08,11,04,03,15.60
2014,08,11,04,04,15.60
2014,08,11,04,05,15.60
2014,08,11,04,06,15.60
2014,08,11,04,07,15.50
2014,08,11,04,08,15.50
2014,08,11,04,09,15.50
2014,08,11,04,10,15.50
2014,08,11,04,11,15.40
2014,08,11,04,12,15.40
2014,08,11,04,13,15.30
2014,08,11,04,14,15.30
2014,08,11,04,15,15.30
2014,08,11,04,16,15.30
2014,08,11,04,17,15.20
2014,08,11,04,18,15.20
2014,08,11,04,19,15.20
2014,08,11,04,20,15.20
2014,08,11,04,21,15.20
2014,08,11,04,22,15.20
2014,08,11,04,23,15.20
2014,08,11,04,24,15.20
2014,08,11,04,25,15.10
2014,08,11,04,26,15.10
2014,08,11,04,27,15.10
2014,08,11,04,28,15.10
2014,08,11,04,29,15.00
2014,08,11,04,30,15.00
2014,08,11,04,31,15.00
2014,08,11,04,32,15.00
2014,08,11,04,33,15.00
2014,08,11,04,34,15.00
2014,08,11,04,35,15.00
2014,08,11,04,36,15.00
2014,08,11,04,37,15.00
2014,08,11,04,38,15.00
2014,08,11,04,39,15.00
2014,08,11,04,40,15.00
2014,08,11,04,41,15.00
2014,08,11,04,42,15.00
2014,08,11,04,43,15.00
2014,08,11,04,44,14.90
2014,08,11,04,45,14.90
2014,08,11,04,46,14.90
2014,08,11,04,47,14.90
2014,08,11,04,48,14.90
2014,08,11,04,49,14.90
2014,08,11,04,50,14.90
2014,08,11,04,51,14.90
2014,08,11,04,52,14.80
2014,08,11,04,53,14.80
2014,08,11,04,54,14.80
2014,08,11,04,55,14.80
2014,08,11,04,56,14.80
2014,08,11,04,57,14.80
2014,08,11,04,58,14.70
2014,08,11,04,59,14.70
2014,08,11,05,00,14.70
2014,08,11,05,01,14.70
2014,08,11,05,02,14.60
2014,08,11,05,03,14.60
2014,08,11,05,04,14.60
2014,08,11,05,05,14.60
2014,08,11,05,06,14.50
2014,08,11,05,07,14.50
2014,08,11,05,08,14.50
2014,08,11,05,09,14.40
2014,08,11,05,10,14.40
2014,08,11,05,11,14.40
2014,08,11,05,12,14.40
2014,08,11,05,13,14.40
2014,08,11,05,14,14.40
2014,08,11,05,15,14.40
2014,08,11,05,16,14.40
2014,08,11,05,17,14.40
2014,08,11,05,18,14.40
2014,08,11,05,19,14.40
2014,08,11,05,20,14.40
2014,08,11,05,21,14.50
2014,08,11,05,22,14.50
2014,08,11,05,23,14.50
2014,08,11,05,24,14.50
2014,08,11,05,25,14.50
2014,08,11,05,26,14.50
2014,08,11,05,27,14.50
2014,08,11,05,28,14.50
2014,08,11,05,29,14.40
2014,08,11,05,30,14.40
2014,08,11,05,31,14.40
2014,08,11,05,32,14.40
2014,08,11,05,33,14.40
2014,08,11,05,34,14.30
2014,08,11,05,35,14.30
2014,08,11,05,36,14.30
2014,08,11,05,37,14.30
2014,08,11,05,38,14.30
2014,08,11,05,39,14.20
2014,08,11,05,40,14.20
2014,08,11,05,41,14.20
2014,08,11,05,42,14.20
2014,08,11,05,43,14.10
2014,08,11,05,44,14.10
2014,08,11,05,45,14.10
2014,08,11,05,46,14.10
2014,08,11,05,47,14.00
2014,08,11,05,48,14.00
2014,08,11,05,49,14.00
2014,08,11,05,50,13.90
2014,08,11,05,51,13.90
2014,08,11,05,52,13.90
2014,08,11,05,53,13.90
2014,08,11,05,54,13.90
2014,08,11,05,55,13.90
2014,08,11,05,56,13.90
2014,08,11,05,57,13.90
2014,08,11,05,58,13.90
2014,08,11,05,59,13.90
2014,08,11,06,00,13.90
2014,08,11,06,01,13.90
2014,08,11,06,02,13.90
2014,08,11,06,03,13.90
2014,08,11,06,04,13.90
2014,08,11,06,05,13.90
2014,08,11,06,06,14.00
2014,08,11,06,07,14.00
2014,08,11,06,08,14.00
2014,08,11,06,09,14.10
2014,08,11,06,10,14.10
2014,08,11,06,11,14.10
2014,08,11,06,12,14.10
2014,08,11,06,13,14.10
2014,08,11,06,14,14.10
2014,08,11,06,15,14.10
2014,08,11,06,16,14.10
2014,08,11,06,17,14.10
2014,08,11,06,18,14.10
2014,08,11,06,19,14.10
2014,08,11,06,20,14.10
2014,08,11,06,21,14.10
2014,08,11,06,22,14.10
2014,08,11,06,23,14.10
2014,08,11,06,24,14.10
2014,08,11,06,25,14.10
2014,08,11,06,26,14.10
2014,08,11,06,27,14.10
2014,08,11,06,28,14.10
2014,08,11,06,29,14.10
2014,08,11,06,30,14.10
2014,08,11,06,31,14.00
2014,08,11,06,32,14.00
2014,08,11,06,33,14.00
2014,08,11,06,34,14.00
2014,08,11,06,35,14.00
2014,08,11,06,36,14.00
2014,08,11,06,37,14.00
2014,08,11,06,38,14.00
2014,08,11,06,39,14.00
2014,08,11,06,40,14.00
2014,08,11,06,41,14.00
2014,08,11,06,42,14.00
2014,08,11,06,43,14.00
2014,08,11,06,44,14.00
2014,08,11,06,45,14.00
2014,08,11,06,46,14.00
2014,08,11,06,47,14.00
2014,08,11,06,48,14.00
2014,08,11,06,49,14.00
2014,08,11,06,50,14.00
2014,08,11,06,51,13.90
2014,08,11,06,52,13.90
2014,08,11,06,53,13.90
2014,08,11,06,54,13.90
2014,08,11,06,55,13.90
2014,08,11,06,56,13.90
2014,08,11,06,57,13.90
2014,08,11,06,58,13.90
2014,08,11,06,59,13.90
2014,08,11,07,00,13.90
2014,08,11,07,01,13.90
2014,08,11,07,02,13.90
2014,08,11,07,03,13.90
2014,08,11,07,04,13.90
2014,08,11,07,05,13.90
2014,08,11,07,06,13.90
2014,08,11,07,07,13.90
2014,08,11,07,08,13.90
2014,08,11,07,09,14.00
2014,08,11,07,10,14.00
2014,08,11,07,11,14.10
2014,08,11,07,12,14.10
2014,08,11,07,13,14.20
2014,08,11,07,14,14.20
2014,08,11,07,15,14.30
2014,08,11,07,16,14.40
2014,08,11,07,17,14.50
2014,08,11,07,18,14.60
2014,08,11,07,19,14.60
2014,08,11,07,20,14.70
2014,08,11,07,21,14.80
2014,08,11,07,22,14.80
2014,08,11,07,23,14.80
2014,08,11,07,24,14.90
2014,08,11,07,25,14.90
2014,08,11,07,26,14.90
2014,08,11,07,27,15.00
2014,08,11,07,28,15.00
2014,08,11,07,29,15.10
2014,08,11,07,30,15.10
2014,08,11,07,31,15.10
2014,08,11,07,32,15.10
2014,08,11,07,33,15.10
2014,08,11,07,34,15.10
2014,08,11,07,35,15.30
2014,08,11,07,36,15.30
2014,08,11,07,37,15.40
2014,08,11,07,38,15.40
2014,08,11,07,39,15.50
2014,08,11,07,40,15.50
2014,08,11,07,41,15.60
2014,08,11,07,42,15.60
2014,08,11,07,43,15.70
2014,08,11,07,44,15.80
2014,08,11,07,45,15.90
2014,08,11,07,46,16.00
2014,08,11,07,47,16.10
2014,08,11,07,48,16.20
2014,08,11,07,49,16.30
2014,08,11,07,50,16.40
2014,08,11,07,51,16.50
2014,08,11,07,52,16.50
2014,08,11,07,53,16.60
2014,08,11,07,54,16.70
2014,08,11,07,55,16.70
2014,08,11,07,56,16.80
2014,08,11,07,57,16.80
2014,08,11,07,58,16.90
2014,08,11,07,59,16.90
2014,08,11,08,00,17.00
2014,08,11,08,01,17.10
2014,08,11,08,02,17.20
2014,08,11,08,03,17.30
2014,08,11,08,04,17.40
2014,08,11,08,05,17.40
2014,08,11,08,06,17.50
2014,08,11,08,07,17.50
2014,08,11,08,08,17.60
2014,08,11,08,09,17.60
2014,08,11,08,10,17.70
2014,08,11,08,11,17.80
2014,08,11,08,12,17.80
2014,08,11,08,13,17.90
2014,08,11,08,14,17.90
2014,08,11,08,15,18.00
2014,08,11,08,16,18.00
2014,08,11,08,17,18.10
2014,08,11,08,18,18.10
2014,08,11,08,19,18.20
2014,08,11,08,20,18.20
2014,08,11,08,21,18.20
2014,08,11,08,22,18.30
2014,08,11,08,23,18.30
2014,08,11,08,24,18.40
2014,08,11,08,25,18.40
2014,08,11,08,26,18.50
2014,08,11,08,27,18.60
2014,08,11,08,28,18.70
2014,08,11,08,29,18.70
2014,08,11,08,30,18.80
2014,08,11,08,31,18.90
2014,08,11,08,32,19.00
2014,08,11,08,33,19.10
2014,08,11,08,34,19.20
2014,08,11,08,35,19.30
2014,08,11,08,36,19.30
2014,08,11,08,37,19.40
2014,08,11,08,38,19.50
2014,08,11,08,39,19.60
2014,08,11,08,40,19.70
2014,08,11,08,41,19.80
2014,08,11,08,42,19.90
2014,08,11,08,43,19.90
2014,08,11,08,44,19.90
2014,08,11,08,45,19.90
2014,08,11,08,46,20.00
2014,08,11,08,47,20.00
2014,08,11,08,48,20.10
2014,08,11,08,49,20.10
2014,08,11,08,50,20.10
2014,08,11,08,51,20.20
2014,08,11,08,52,20.30
2014,08,11,08,53,20.40
2014,08,11,08,54,20.50
2014,08,11,08,55,20.60
2014,08,11,08,56,20.70
2014,08,11,08,57,20.80
2014,08,11,08,58,20.90
2014,08,11,08,59,20.90
2014,08,11,09,00,21.00
2014,08,11,09,01,21.10
2014,08,11,09,02,21.10
2014,08,11,09,03,21.10
2014,08,11,09,04,21.10
2014,08,11,09,05,21.20
2014,08,11,09,06,21.30
2014,08,11,09,07,21.40
2014,08,11,09,08,21.50
2014,08,11,09,09,21.60
2014,08,11,09,10,21.70
2014,08,11,09,11,21.80
2014,08,11,09,12,22.00
2014,08,11,09,13,22.10
2014,08,11,09,14,22.20
2014,08,11,09,15,22.40
2014,08,11,09,16,22.50
2014,08,11,09,17,22.60
2014,08,11,09,18,22.70
2014,08,11,09,19,22.80
2014,08,11,09,20,22.90
2014,08,11,09,21,23.00
2014,08,11,09,22,23.10
2014,08,11,09,23,23.20
2014,08,11,09,24,23.30
2014,08,11,09,25,23.30
2014,08,11,09,26,23.30
2014,08,11,09,27,23.40
2014,08,11,09,28,23.50
2014,08,11,09,29,23.60
2014,08,11,09,30,23.60
2014,08,11,09,31,23.70
2014,08,11,09,32,23.70
2014,08,11,09,33,23.70
2014,08,11,09,34,23.80
2014,08,11,09,35,23.80
2014,08,11,09,36,23.80
2014,08,11,09,37,23.70
2014,08,11,09,38,23.70
2014,08,11,09,39,23.60
2014,08,11,09,40,23.60
2014,08,11,09,41,23.60
2014,08,11,09,42,23.60
2014,08,11,09,43,23.70
2014,08,11,09,44,23.80
2014,08,11,09,45,23.80
2014,08,11,09,46,23.90
2014,08,11,09,47,24.00
2014,08,11,09,48,24.10
2014,08,11,09,49,24.10
2014,08,11,09,50,24.20
2014,08,11,09,51,24.20
2014,08,11,09,52,24.30
2014,08,11,09,53,24.30
2014,08,11,09,54,24.40
2014,08,11,09,55,24.40
2014,08,11,09,56,24.40
2014,08,11,09,57,24.30
2014,08,11,09,58,24.30
2014,08,11,09,59,24.30
2014,08,11,10,00,24.40
2014,08,11,10,01,24.40
2014,08,11,10,02,24.50
2014,08,11,10,03,24.40
2014,08,11,10,04,24.40
2014,08,11,10,05,24.40
2014,08,11,10,06,24.50
2014,08,11,10,07,24.50
2014,08,11,10,08,24.60
2014,08,11,10,09,24.70
2014,08,11,10,10,24.70
2014,08,11,10,11,24.80
2014,08,11,10,12,24.80
2014,08,11,10,13,24.90
2014,08,11,10,14,24.90
2014,08,11,10,15,25.00
2014,08,11,10,16,25.10
2014,08,11,10,17,25.20
2014,08,11,10,18,25.30
2014,08,11,10,19,25.40
2014,08,11,10,20,25.50
2014,08,11,10,21,25.50
2014,08,11,10,22,25.60
2014,08,11,10,23,25.60
2014,08,11,10,24,25.60
2014,08,11,10,25,25.60
2014,08,11,10,26,25.60
2014,08,11,10,27,25.60
2014,08,11,10,28,25.50
2014,08,11,10,29,25.50
2014,08,11,10,30,25.40
2014,08,11,10,31,25.40
2014,08,11,10,32,25.30
2014,08,11,10,33,25.30
2014,08,11,10,34,25.30
2014,08,11,10,35,25.30
2014,08,11,10,36,25.30
2014,08,11,10,37,25.40
2014,08,11,10,38,25.50
2014,08,11,10,39,25.50
2014,08,11,10,40,25.60
2014,08,11,10,41,25.70
2014,08,11,10,42,25.80
2014,08,11,10,43,25.80
2014,08,11,10,44,26.00
2014,08,11,10,45,26.10
2014,08,11,10,46,26.10
2014,08,11,10,47,26.10
2014,08,11,10,48,26.20
2014,08,11,10,49,26.20
2014,08,11,10,50,26.20
2014,08,11,10,51,26.20
2014,08,11,10,52,26.30
2014,08,11,10,53,26.30
2014,08,11,10,54,26.40
2014,08,11,10,55,26.40
2014,08,11,10,56,26.40
2014,08,11,10,57,26.50
2014,08,11,10,58,26.60
2014,08,11,10,59,26.60
2014,08,11,11,00,26.60
2014,08,11,11,01,26.60
2014,08,11,11,02,26.70
2014,08,11,11,03,26.70
2014,08,11,11,04,26.80
2014,08,11,11,05,26.80
2014,08,11,11,06,26.80
2014,08,11,11,07,26.80
2014,08,11,11,08,26.80
2014,08,11,11,09,26.80
2014,08,11,11,10,26.80
2014,08,11,11,11,26.90
2014,08,11,11,12,26.90
2014,08,11,11,13,27.00
2014,08,11,11,14,27.00
2014,08,11,11,15,27.10
2014,08,11,11,16,27.10
2014,08,11,11,17,27.20
2014,08,11,11,18,27.30
2014,08,11,11,19,27.30
2014,08,11,11,20,27.40
2014,08,11,11,21,27.50
2014,08,11,11,22,27.60
2014,08,11,11,23,27.70
2014,08,11,11,24,27.80
2014,08,11,11,25,27.90
2014,08,11,11,26,28.00
2014,08,11,11,27,28.10
2014,08,11,11,28,28.20
2014,08,11,11,29,28.30
2014,08,11,11,30,28.40
2014,08,11,11,31,28.50
2014,08,11,11,32,28.60
2014,08,11,11,33,28.60
2014,08,11,11,34,28.70
2014,08,11,11,35,28.70
2014,08,11,11,36,28.70
2014,08,11,11,37,28.80
2014,08,11,11,38,28.80
2014,08,11,11,39,28.90
2014,08,11,11,40,28.90
2014,08,11,11,41,28.90
2014,08,11,11,42,29.00
2014,08,11,11,43,29.00
2014,08,11,11,44,29.10
2014,08,11,11,45,29.10
2014,08,11,11,46,29.10
2014,08,11,11,47,29.10
2014,08,11,11,48,29.10
2014,08,11,11,49,29.20
2014,08,11,11,50,29.30
2014,08,11,11,51,29.30
2014,08,11,11,52,29.40
2014,08,11,11,53,29.50
2014,08,11,11,54,29.60
2014,08,11,11,55,29.60
2014,08,11,11,56,29.70
2014,08,11,11,57,29.80
2014,08,11,11,58,29.80
2014,08,11,11,59,29.80
2014,08,11,12,00,29.80
2014,08,11,12,01,29.80
2014,08,11,12,02,29.70
2014,08,11,12,03,29.70
2014,08,11,12,04,29.70
2014,08,11,12,05,29.70
2014,08,11,12,06,29.70
2014,08,11,12,07,29.80
2014,08,11,12,08,29.80
2014,08,11,12,09,29.90
2014,08,11,12,10,29.90
2014,08,11,12,11,30.00
2014,08,11,12,12,30.00
2014,08,11,12,13,30.00
2014,08,11,12,14,30.10
2014,08,11,12,15,30.10
2014,08,11,12,16,30.20
2014,08,11,12,17,30.20
2014,08,11,12,18,30.30
2014,08,11,12,19,30.40
2014,08,11,12,20,30.60
2014,08,11,12,21,30.70
2014,08,11,12,22,30.80
2014,08,11,12,23,30.90
2014,08,11,12,24,30.90
2014,08,11,12,25,30.90
2014,08,11,12,26,30.90
2014,08,11,12,27,30.90
2014,08,11,12,28,30.90
2014,08,11,12,29,30.90
2014,08,11,12,30,30.90
2014,08,11,12,31,31.00
2014,08,11,12,32,31.10
2014,08,11,12,33,31.10
2014,08,11,12,34,31.20
2014,08,11,12,35,31.20
2014,08,11,12,36,31.20
2014,08,11,12,37,31.30
2014,08,11,12,38,31.30
2014,08,11,12,39,31.30
2014,08,11,12,40,31.30
2014,08,11,12,41,31.30
2014,08,11,12,42,31.40
2014,08,11,12,43,31.40
2014,08,11,12,44,31.50
2014,08,11,12,45,31.60
2014,08,11,12,46,31.70
2014,08,11,12,47,31.70
2014,08,11,12,48,31.70
2014,08,11,12,49,31.80
2014,08,11,12,50,31.80
2014,08,11,12,51,31.80
2014,08,11,12,52,31.90
2014,08,11,12,53,31.90
2014,08,11,12,54,31.90
2014,08,11,12,55,31.90
2014,08,11,12,56,31.90
2014,08,11,12,57,31.90
2014,08,11,12,58,32.00
2014,08,11,12,59,32.00
2014,08,11,13,00,32.00
2014,08,11,13,01,32.10
2014,08,11,13,02,32.20
2014,08,11,13,03,32.20
2014,08,11,13,04,32.20
2014,08,11,13,05,32.20
2014,08,11,13,06,32.30
2014,08,11,13,07,32.30
2014,08,11,13,08,32.30
2014,08,11,13,09,32.40
2014,08,11,13,10,32.40
2014,08,11,13,11,32.40
2014,08,11,13,12,32.50
2014,08,11,13,13,32.60
2014,08,11,13,14,32.70
2014,08,11,13,15,32.80
2014,08,11,13,16,32.80
2014,08,11,13,17,32.80
2014,08,11,13,18,32.80
2014,08,11,13,19,32.70
2014,08,11,13,20,32.70
2014,08,11,13,21,32.70
2014,08,11,13,22,32.70
2014,08,11,13,23,32.80
2014,08,11,13,24,32.90
2014,08,11,13,25,33.00
2014,08,11,13,26,33.10
2014,08,11,13,27,33.10
2014,08,11,13,28,33.20
2014,08,11,13,29,33.20
2014,08,11,13,30,33.20
2014,08,11,13,31,33.20
2014,08,11,13,32,33.20
2014,08,11,13,33,33.20
2014,08,11,13,34,33.10
2014,08,11,13,35,33.10
2014,08,11,13,36,33.10
2014,08,11,13,37,33.20
2014,08,11,13,38,33.20
2014,08,11,13,39,33.30
2014,08,11,13,40,33.40
2014,08,11,13,41,33.40
2014,08,11,13,42,33.50
2014,08,11,13,43,33.50
2014,08,11,13,44,33.60
2014,08,11,13,45,33.70
2014,08,11,13,46,33.90
2014,08,11,13,47,34.00
2014,08,11,13,48,34.10
2014,08,11,13,49,34.20
2014,08,11,13,50,34.20
2014,08,11,13,51,34.30
2014,08,11,13,52,34.40
2014,08,11,13,53,34.40
2014,08,11,13,54,34.50
2014,08,11,13,55,34.50
2014,08,11,13,56,34.60
2014,08,11,13,57,34.60
2014,08,11,13,58,34.60
2014,08,11,13,59,34.60
2014,08,11,14,00,34.60
2014,08,11,14,01,34.60
2014,08,11,14,02,34.60
2014,08,11,14,03,34.60
2014,08,11,14,04,34.60
2014,08,11,14,05,34.60
2014,08,11,14,06,34.60
2014,08,11,14,07,34.60
2014,08,11,14,08,34.60
2014,08,11,14,09,34.60
2014,08,11,14,10,34.60
2014,08,11,14,11,34.60
2014,08,11,14,12,34.60
2014,08,11,14,13,34.50
2014,08,11,14,14,34.50
2014,08,11,14,15,34.50
2014,08,11,14,16,34.50
2014,08,11,14,17,34.60
2014,08,11,14,18,34.70
2014,08,11,14,19,34.80
2014,08,11,14,20,34.90
2014,08,11,14,21,35.00
2014,08,11,14,22,35.10
2014,08,11,14,23,35.20
2014,08,11,14,24,35.20
2014,08,11,14,25,35.10
2014,08,11,14,26,35.10
2014,08,11,14,27,35.00
2014,08,11,14,28,35.00
2014,08,11,14,29,34.90
2014,08,11,14,30,34.90
2014,08,11,14,31,35.00
2014,08,11,14,32,35.10
2014,08,11,14,33,35.20
2014,08,11,14,34,35.30
2014,08,11,14,35,35.40
2014,08,11,14,36,35.40
2014,08,11,14,37,35.40
2014,08,11,14,38,35.30
2014,08,11,14,39,35.30
2014,08,11,14,40,35.30
2014,08,11,14,41,35.30
2014,08,11,14,42,35.30
2014,08,11,14,43,35.30
2014,08,11,14,44,35.30
2014,08,11,14,45,35.30
2014,08,11,14,46,35.40
2014,08,11,14,47,35.50
2014,08,11,14,48,35.70
2014,08,11,14,49,35.80
2014,08,11,14,50,35.80
2014,08,11,14,51,35.80
2014,08,11,14,52,35.90
2014,08,11,14,53,35.90
2014,08,11,14,54,35.80
2014,08,11,14,55,35.70
2014,08,11,14,56,35.50
2014,08,11,14,57,35.20
2014,08,11,14,58,35.00
2014,08,11,14,59,34.80
2014,08,11,15,00,34.60
2014,08,11,15,01,34.60
2014,08,11,15,02,34.60
2014,08,11,15,03,34.60
2014,08,11,15,04,34.60
2014,08,11,15,05,34.70
2014,08,11,15,06,34.70
2014,08,11,15,07,34.70
2014,08,11,15,08,34.60
2014,08,11,15,09,34.40
2014,08,11,15,10,34.30
2014,08,11,15,11,34.20
2014,08,11,15,12,34.20
2014,08,11,15,13,34.20
2014,08,11,15,14,34.20
2014,08,11,15,15,34.20
2014,08,11,15,16,34.20
2014,08,11,15,17,34.20
2014,08,11,15,18,34.30
2014,08,11,15,19,34.30
2014,08,11,15,20,34.30
2014,08,11,15,21,34.40
2014,08,11,15,22,34.50
2014,08,11,15,23,34.60
2014,08,11,15,24,34.60
2014,08,11,15,25,34.60
2014,08,11,15,26,34.60
2014,08,11,15,27,34.60
2014,08,11,15,28,34.70
2014,08,11,15,29,34.80
2014,08,11,15,30,34.80
2014,08,11,15,31,34.90
2014,08,11,15,32,35.00
2014,08,11,15,33,35.10
2014,08,11,15,34,35.10
2014,08,11,15,35,35.10
2014,08,11,15,36,35.20
2014,08,11,15,37,35.20
2014,08,11,15,38,35.20
2014,08,11,15,39,35.20
2014,08,11,15,40,35.30
2014,08,11,15,41,35.30
2014,08,11,15,42,35.30
2014,08,11,15,43,35.30
2014,08,11,15,44,35.30
2014,08,11,15,45,35.40
2014,08,11,15,46,35.40
2014,08,11,15,47,35.40
2014,08,11,15,48,35.40
2014,08,11,15,49,35.40
2014,08,11,15,50,35.40
2014,08,11,15,51,35.40
2014,08,11,15,52,35.40
2014,08,11,15,53,35.40
2014,08,11,15,54,35.50
2014,08,11,15,55,35.50
2014,08,11,15,56,35.60
2014,08,11,15,57,35.70
2014,08,11,15,58,35.70
2014,08,11,15,59,35.70
2014,08,11,16,00,35.70
2014,08,11,16,01,35.70
2014,08,11,16,02,35.80
2014,08,11,16,03,35.80
2014,08,11,16,04,35.80
2014,08,11,16,05,35.80
2014,08,11,16,06,35.80
2014,08,11,16,07,35.70
2014,08,11,16,08,35.70
2014,08,11,16,09,35.60
2014,08,11,16,10,35.60
2014,08,11,16,11,35.60
2014,08,11,16,12,35.60
2014,08,11,16,13,35.50
2014,08,11,16,14,35.40
2014,08,11,16,15,35.40
2014,08,11,16,16,35.30
2014,08,11,16,17,35.30
2014,08,11,16,18,35.20
2014,08,11,16,19,35.20
2014,08,11,16,20,35.20
2014,08,11,16,21,35.20
2014,08,11,16,22,35.20
2014,08,11,16,23,35.20
2014,08,11,16,24,35.10
2014,08,11,16,25,35.10
2014,08,11,16,26,35.00
2014,08,11,16,27,34.90
2014,08,11,16,28,34.90
2014,08,11,16,29,34.90
2014,08,11,16,30,34.90
2014,08,11,16,31,34.90
2014,08,11,16,32,34.90
2014,08,11,16,33,34.90
2014,08,11,16,34,35.00
2014,08,11,16,35,35.10
2014,08,11,16,36,35.10
2014,08,11,16,37,35.20
2014,08,11,16,38,35.20
2014,08,11,16,39,35.30
2014,08,11,16,40,35.30
2014,08,11,16,41,35.30
2014,08,11,16,42,35.40
2014,08,11,16,43,35.40
2014,08,11,16,44,35.30
2014,08,11,16,45,35.20
2014,08,11,16,46,35.10
2014,08,11,16,47,35.10
2014,08,11,16,48,35.10
2014,08,11,16,49,35.10
2014,08,11,16,50,35.10
2014,08,11,16,51,35.10
2014,08,11,16,52,35.10
2014,08,11,16,53,35.10
2014,08,11,16,54,35.00
2014,08,11,16,55,34.90
2014,08,11,16,56,34.80
2014,08,11,16,57,34.70
2014,08,11,16,58,34.60
2014,08,11,16,59,34.50
2014,08,11,17,00,34.30
2014,08,11,17,01,34.20
2014,08,11,17,02,34.10
2014,08,11,17,03,34.10
2014,08,11,17,04,34.00
2014,08,11,17,05,33.90
2014,08,11,17,06,33.90
2014,08,11,17,07,33.80
2014,08,11,17,08,33.80
2014,08,11,17,09,33.70
2014,08,11,17,10,33.70
2014,08,11,17,11,33.70
2014,08,11,17,12,33.70
2014,08,11,17,13,33.70
2014,08,11,17,14,33.70
2014,08,11,17,15,33.60
2014,08,11,17,16,33.60
2014,08,11,17,17,33.60
2014,08,11,17,18,33.70
2014,08,11,17,19,33.70